Wind_Speed
11 12 9 7 8 9 9 10 11 10 8 7 7 6 6 5 5 10 11 12 14 12 11 13 13 8 6 5 5 5 6 7 9
10 13 10 7 6 8 8 9 10 8 7 6 6 7 8 9 13 13 11 9 7 6 4 6 8 8 9 9 6 6 7 10 11
10 11 9 6 5 6 7 8 7 6 4 4 4 5 7 9 10 9 8 4 2 2 2 4 5 4 4 7 8 7 7 8 7
9 8 9 6 4 4 5 6 5 4 3 2 2 4 5 4 2 1 1 2 2 3 2 3 2 2 3 3 2 0 1 2 2
10 10 8 7 5 3 2 4 4 3 3 3 3 3 5 4 2 1 1 3 1 2 3 2 2 3 2 3 5 2 4 5 4
9 9 8 7 6 4 3 4 5 5 6 7 7 6 7 8 5 4 3 3 1 3 2 1 1 1 1 2 3 3 3 3 3
9 9 9 8 7 6 5 5 6 7 7 8 9 9 7 8 8 7 5 3 3 4 3 3 2 1 1 2 3 3 3 4 4
11 11 11 11 9 9 8 8 8 9 9 10 10 11 11 10 11 10 9 6 5 6 5 4 3 3 2 2 2 2 3 4 4
12 12 11 12 10 10 11 11 11 11 11 11 12 12 14 12 11 11 11 10 8 8 8 6 5 5 4 4 4 4 3 4 4
11 12 11 11 11 11 12 13 13 13 13 13 14 13 14 15 13 13 13 13 13 11 10 8 8 7 7 6 6 5 5 5 5
14 13 13 12 11 11 13 14 15 15 16 17 16 17 17 16 17 16 16 16 16 15 13 11 10 10 9 8 8 7 7 6 6
16 16 15 15 14 14 14 16 17 18 18 20 19 19 19 19 20 20 19 19 19 19 18 15 14 12 12 11 11 10 10 10 9
18 19 18 16 17 19 19 19 20 21 22 23 22 22 21 22 23 23 23 23 22 22 22 20 17 15 15 14 14 14 13 12 11
21 21 21 21 22 22 24 24 23 25 26 25 26 25 26 26 27 29 27 26 26 25 24 24 22 20 19 17 16 16 15 14 13
23 25 25 25 25 26 26 28 28 28 29 28 29 30 29 29 29 29 30 31 30 29 28 26 26 25 23 20 18 17 18 16 15
20 23 25 26 26 27 27 27 28 31 30 27 25 28 29 27 29 31 31 33 34 33 30 28 28 27 27 26 24 21 20 20 19
23 24 25 25 25 25 26 25 26 26 25 14 6 3 7 17 22 24 28 31 32 34 32 29 28 29 30 30 29 27 23 22 22
18 21 22 23 22 24 23 22 22 22 20 21 12 1 4 3 8 12 16 20 24 27 29 30 30 29 31 32 32 30 28 22 23
11 15 17 18 19 20 20 19 18 18 19 16 19 22 13 2 3 4 9 16 22 22 22 22 23 26 28 29 31 33 30 31 29
9 8 10 14 17 19 18 17 16 14 15 16 13 14 16 16 8 5 5 9 12 21 20 24 21 22 24 27 29 29 30 32 28
Wind_Direction
145 150 150 128 90 90 115 126 125 118 106 89 88 96 104 100 97 121 99 92 90 85 69 52 58 92 58 57 71 73 73 82 98
149 161 159 140 108 102 124 130 133 125 109 92 78 94 104 98 101 110 109 104 94 89 76 63 60 71 61 71 83 83 95 95 92
154 161 162 154 135 112 132 137 142 139 123 99 98 111 116 113 103 109 119 126 76 61 67 50 87 100 67 62 74 76 93 91 87
161 166 165 168 158 132 134 142 151 156 160 144 102 157 155 153 139 172 270 316 14 24 47 80 82 117 170 150 101 55 355 28 47
167 179 185 189 189 173 160 169 172 181 209 228 225 231 226 224 248 225 342 345 9 18 18 65 61 46 101 187 168 178 229 237 249
186 192 195 204 212 222 221 204 205 217 231 232 239 255 246 236 252 259 279 324 320 330 342 13 46 64 79 119 136 152 154 147 138
210 212 214 220 227 236 239 239 229 232 244 250 245 247 243 233 256 260 264 280 261 300 307 293 259 228 181 149 138 136 137 135 134
221 225 226 230 233 238 240 244 247 246 252 262 259 245 243 254 266 258 257 259 256 265 261 261 250 235 219 201 184 170 158 155 149
231 234 235 237 241 247 248 253 254 252 257 267 267 259 248 255 271 265 258 256 253 252 268 261 249 241 233 227 218 208 194 183 170
241 240 240 240 244 253 257 259 259 259 262 267 267 266 261 259 268 268 261 264 260 249 253 256 243 240 239 238 239 230 220 205 193
249 247 246 249 254 261 265 266 264 265 265 267 267 266 268 269 268 272 265 265 265 260 250 252 247 243 241 242 238 231 226 223 213
252 253 254 258 261 265 268 267 266 266 265 266 267 269 266 271 271 273 272 266 262 261 256 247 245 242 238 240 241 241 232 223 220
254 257 260 266 266 264 265 269 268 267 266 267 269 269 271 272 272 273 273 270 264 261 257 257 248 242 238 239 239 237 233 232 229
260 263 267 267 267 266 264 266 266 268 270 270 275 273 272 272 274 273 272 271 267 265 261 257 256 253 243 240 242 243 234 231 229
262 266 269 268 267 267 266 263 265 266 270 274 275 278 277 274 274 273 274 272 270 266 261 257 254 253 253 244 243 245 241 228 230
265 266 268 268 266 269 271 269 266 268 268 272 279 279 282 279 275 274 271 265 266 266 263 258 255 254 252 252 245 240 240 236 227
267 269 268 266 263 264 266 265 265 266 268 251 250 275 278 273 270 267 269 273 271 269 269 266 260 258 254 252 251 247 240 244 233
262 263 264 265 260 260 264 266 264 255 262 255 237 266 236 350 274 288 285 286 283 279 277 275 269 263 258 255 253 249 245 240 251
270 267 265 263 260 258 262 266 266 261 254 256 253 251 265 253 298 265 294 283 285 288 293 282 278 270 264 260 257 252 247 239 240
280 284 280 268 261 260 260 261 264 262 256 251 261 271 262 262 226 280 260 273 283 298 294 291 283 276 268 265 260 254 252 254 234
Height
844 845 846 848 848 848 850 851 852 852 853 854 854 855 855 856 855 856 856 857 857 858 857 857 857 857 857 856 856 856 856 856 855
845 846 848 849 849 850 852 853 854 854 855 856 856 857 858 858 857 858 858 859 859 859 858 859 859 858 859 858 857 858 858 857 858
846 848 849 850 851 852 853 854 855 856 857 858 859 859 860 861 861 861 861 861 860 860 859 858 859 859 859 860 859 859 860 859 859
848 849 850 852 853 853 854 855 856 857 859 860 860 861 862 862 862 862 862 862 862 861 860 859 858 858 859 860 861 861 861 861 860
849 850 851 852 854 854 855 855 856 857 859 861 862 862 863 863 863 863 863 863 862 862 861 861 860 860 859 859 860 861 861 862 862
849 850 852 853 854 854 855 855 856 857 859 860 861 862 862 862 863 863 864 864 863 862 862 862 861 860 860 859 860 860 861 861 861
849 851 852 853 854 854 855 855 856 857 858 860 861 862 862 862 863 863 864 864 863 863 862 861 861 860 860 860 860 861 861 860 861
848 850 851 852 852 853 854 855 855 856 858 858 860 861 861 861 861 862 863 863 863 863 862 861 861 861 861 862 862 862 861 861 860
847 849 850 851 851 851 853 853 855 855 856 857 858 859 860 861 860 860 861 862 862 862 862 861 861 861 861 861 861 861 861 862 861
846 847 848 848 849 850 851 852 853 853 855 856 856 857 857 858 858 858 859 859 860 861 860 860 860 860 861 861 862 862 862 861 861
844 845 846 847 847 848 849 850 851 852 853 854 854 855 855 855 855 856 856 857 857 858 859 859 859 860 860 861 861 861 861 861 861
842 843 844 845 846 847 848 848 849 849 850 850 851 852 852 852 852 853 853 853 854 855 855 856 856 857 858 858 859 860 860 860 860
840 840 841 842 843 844 845 846 846 846 847 847 848 848 849 849 849 849 849 850 850 850 852 852 853 854 855 856 856 856 857 859 859
836 837 838 840 841 841 842 843 843 843 843 844 843 844 844 844 845 845 845 845 846 847 848 849 850 851 852 852 853 855 855 856 857
833 833 834 836 837 838 838 839 839 840 840 840 839 839 839 839 839 839 840 840 840 840 841 843 845 847 848 849 851 853 853 853 855
829 829 830 831 832 833 833 834 835 835 836 837 834 833 833 833 833 833 832 832 833 834 835 837 840 841 843 844 845 847 848 850 850
825 825 826 827 827 828 828 829 830 830 831 832 832 830 827 826 826 826 827 827 828 828 829 832 833 835 837 838 839 841 844 846 846
820 821 821 821 822 822 824 824 825 825 826 827 829 828 827 824 823 823 824 824 823 823 824 825 826 827 829 831 833 836 839 841 842
816 816 816 817 818 818 819 820 820 821 821 823 823 823 823 824 821 820 820 822 821 820 820 820 820 821 822 824 825 828 831 831 830
814 814 814 813 813 814 814 815 816 816 817 817 818 819 820 820 822 817 817 817 818 819 818 816 816 815 816 816 818 820 823 824 827